www.pogodaiklimat.ru

Погода и климат >> Архив погоды >> Россия >> Тува >> Кызыл


АРХИВ ПОГОДЫ в Кызыле

Время (UTC), дата Ветер
(напр.,м/с)
 
Видим.   Явления Облачность Т
(С)
Тd
(С)
f
(%)
Тe
(С)
Тes
(С)
Комфортность P
(гПа)
Po
(гПа)
Тmin
(С)
Tmax
(С)
R
(мм)
R24
(мм)
S
(см)
00 19.08 штиль 0 50 км в посл. час ливневой дождь 9/8 1000 м
[Cb cap Ac trans Ci fib]
+14.8 +11.1 78 +15 +15 тепло 1013.5 941.2 +12.9 0.0
03 19.08 С 1 20 км {ливн. осадки} 8/5 1000 м
[Cb cap Ac trans Ci fib]
+17.9 +7.9 52 +19 +23 тепло 1013.5 941.9
06 19.08 С 4
{10}
20 км {ливн. осадки} 8/5 1000 м
[Cb cap Ac trans Ci fib]
+20.1 +6.1 40 +21 +24 комфорт 1013.4 942.3
09 19.08 СЗ 5-10
{10}
50 км 9/6 1000 м
[Cb cap Ac trans Ci fib]
+20.7 +7.5 42 +22 +23 комфорт 1013.4 942.4
12 19.08 СЗ 2
{10}
50 км 8/4 1000 м
[Cb cap Ac trans Ci fib]
+20.2 +7.6 44 +22 +22 комфорт 1014.5 943.3 +21.5 0.0
15 19.08 штиль 0 10 км 5/1 1000 м
[Sc Ac trans Ci fib]
+13.2 +8.6 74 +13 +13 холодно 1018.3 945.2
18 19.08 штиль 0 10 км 8/0
[Ac trans Ci fib]
+9.4 +7.5 88 +9 +9 прохладно 1020.5 946.2
21 19.08 СВ 1 10 км 9/0
[Ac trans Ci fib]
+9.8 +7.9 88 +9 +9 прохладно 1020.5 946.4
00 20.08 штиль 0 50 км 9/0
[Ac trans Ci fib]
+10.4 +8.4 87 +10 +10 по сезону 1020.7 946.7 +9.1
03 20.08 СВ 1 50 км 9/0
[Ac trans Ci fib]
+15.9 +9.4 65 +17 +24 по сезону 1018.9 946.4
06 20.08 В 2 50 км 8/3 1000 м
[Sc Ac trans Ci fib]
+22.2 +7.9 40 +23 +29 комфорт 1015.0 944.2
09 20.08 В 2 50 км 8/4 1000 м
[Sc Ac trans Ci fib]
+24.2 +9.1 38 +25 +28 комфорт 1011.9 941.8
12 20.08 В 1 50 км 5/1 1000 м
[Sc Ac trans Ci fib]
+22.9 +9.2 42 +24 +25 комфорт 1010.9 940.6 +24.7
15 20.08 С 1 10 км 8/4 1000 м
[Sc Ac trans Ci fib]
+16.5 +9.6 64 +17 +17 по сезону 1012.2 940.4
18 20.08 З 1 10 км 10/10 1000 м
[Cb cap]
+16.9 +10.3 65 +18 +18 тепло 1013.2 941.4
21 20.08 СВ 1 10 км {ливн. осадки} 10/10 1000 м
[Cb cap]
+16.3 +11.9 75 +17 +17 тепло 1014.1 942.1
00 21.08 штиль 0 50 км {ливн. осадки} 9/8 1000 м
[Cb cap Ac trans Ci sp]
+14.4 +11.4 82 +14 +14 тепло 1014.6 942.1 +13.9 0.6
03 21.08 З 1 50 км 10/10 1000 м
[Cb cap]
+16.8 +12.3 75 +18 +18 тепло 1014.7 942.8
06 21.08 С 2 50 км в посл. час ливневой дождь 9/8 600 м
[Cb cap Ac trans Ci fib]
+16.2 +12.4 78 +16 +18 холодно 1015.0 942.4
09 21.08 С 2 50 км 9/4 1000 м
[Cb cap Ac trans Ci fib]
+19.0 +12.0 64 +20 +23 по сезону 1014.1 942.7
12 21.08 З 1 50 км 4/3 1000 м
[Sc Ci fib]
+19.6 +10.1 54 +22 +22 комфорт 1013.1 941.9 +20.3 1
15 21.08 штиль 0 10 км ясно +12.7 +10.4 86 +12 +12 холодно 1015.6 942.6
18 21.08 штиль 0 10 км ясно +10.5 +9.1 91 +10 +10 прохладно 1016.3 942.7
21 21.08 штиль 0 10 км 1/0
[Ci fib]
+7.9 +7.5 97 +7 +7 холодно 1017.0 942.6
00 22.08 штиль 0 50 км 9/5 1000 м
[Sc Ac trans Ci fib]
+9.2 +8.6 96 +8 +9 прохладно 1016.6 942.6 +7.9
03 22.08 В 1 50 км 8/8 1000 м
[Cb cap]
+17.1 +9.7 62 +18 +20 тепло 1013.6 941.8
06 22.08 ЮВ 1 50 км 8/6 1000 м
[Cb cap Ac trans]
+22.4 +11.3 49 +25 +29 комфорт 1009.1 938.8
09 22.08 СВ 2 50 км 5/3 1000 м
[Cu med, cong Ci fib]
+25.3 +8.7 35 +26 +30 жарко 1005.5 936.1
12 22.08 С 1 50 км 8/5 1000 м
[Cb cap Ci fib]
+23.3 +9.8 42 +25 +25 комфорт 1003.7 934.0 +26.4
15 22.08 штиль 0 10 км 5/0
[Ci fib]
+16.8 +11.9 73 +17 +17 по сезону 1005.3 934.1
18 22.08 штиль 0 10 км 8/3 1000 м
[Sc Ci fib]
+13.2 +10.7 85 +13 +13 по сезону 1005.9 933.7
21 22.08 С 1 10 км 6/1 1000 м
[Sc Ci fib]
+12.4 +10.5 88 +12 +12 по сезону 1005.5 933.2
00 23.08 СВ 1 50 км 4/3 1000 м
[Sc Ci fib]
+13.0 +11.4 90 +13 +14 тепло 1005.1 932.9 +11.0
03 23.08 СВ 1 50 км 8/0
[Ac trans Ci fib]
+22.1 +10.7 48 +24 +31 комфорт 1001.8 932.0
06 23.08 З 1 50 км 9/4 1000 м
[Cb cap Ac trans Ci fib]
+27.8 +10.8 35 +29 +34 жарко 998.9 930.5
09 23.08 З 1 50 км 9/5 1000 м
[Cb cap Ac trans Ci fib]
+28.9 +10.5 32 +29 +31 жарко 997.7 929.6
12 23.08 СЗ 7-12
{15}
50 км 8/4 1000 м
[Cb cap Ac trans Ci fib]
+19.8 +7.5 45 +20 +20 по сезону 1004.2 933.6 +30.2
15 23.08 З 3
{10}
10 км 8/6 1000 м
[Cb cap Ac trans]
+16.9 +8.1 56 +17 +17 по сезону 1010.3 938.6
18 23.08 З 2 10 км {ливн. осадки} 6/3 1000 м
[Sc Ac trans]
+13.3 +9.0 75 +13 +13 по сезону 1013.2 940.5
21 23.08 штиль 0 10 км 8/8 1000 м
[Cb cap]
+10.5 +7.8 83 +10 +10 по сезону 1014.7 941.2
00 24.08 штиль 0 50 км 8/6 1000 м
[Cb cap Ac trans Ci fib]
+11.0 +8.3 83 +10 +11 по сезону 1016.1 942.6 +8.8 0.0
03 24.08 С 1 50 км 9/6 1000 м
[Cb cap Ac trans Ci sp]
+16.7 +6.3 50 +18 +20 тепло 1014.8 942.7
06 24.08 ЮЗ 4 50 км 8/5 1000 м
[Cb cap Ac trans Ci fib]
+20.4 +4.0 34 +21 +24 комфорт 1013.8 942.6
09 24.08 СЗ 3
{10}
50 км 9/5 1000 м
[Cb cap Ac trans Ci fib]
+18.7 +6.5 45 +19 +21 по сезону 1013.6 942.1
12 24.08 штиль 0
{11}
50 км {ливн. осадки} 9/6 1000 м
[Cb cap Ac trans Ci fib]
+15.9 +9.6 66 +16 +16 холодно 1014.6 942.4 +20.8 0.4
15 24.08 З 1 10 км 9/8 1000 м
[Cb cap Ac trans Ci sp]
+15.0 +8.0 63 +16 +16 по сезону 1016.7 944.1
18 24.08 штиль 0 10 км слаб. ливневой дождь 10/10 1000 м
[Cb cap]
+14.2 +8.0 66 +14 +14 по сезону 1017.9 945.1
21 24.08 штиль 0 10 км слаб. ливневой дождь 10/10 1000 м
[Cb cap]
-1.9 +9.7 100 -3 -3 очень
холодно
1019.1 945.6
00 25.08 ЮВ 1 50 км {ливн. осадки} 9/6 1000 м
[Cb cap Ac trans Ci sp]
+11.8 +10.4 91 +12 +12 по сезону 1020.1 946.5 +11.5 1
03 25.08 Ю 2 50 км 8/4 1000 м
[Cu med, cong Ac trans Ci fib]
+16.6 +7.7 56 +17 +20 тепло 1020.0 947.5
06 25.08 В 1 50 км 9/6 1000 м
[Cb cap Ac trans Ci fib]
+20.8 +7.7 43 +23 +27 комфорт 1018.3 947.0
09 25.08 С 2 50 км 6/3 1000 м
[Cu med, cong Ci fib]
+20.8 +6.9 41 +23 +26 комфорт 1017.9 946.5
12 25.08 С 1 50 км 4/1 1000 м
[Sc Ci fib]
+20.0 +7.3 44 +22 +22 комфорт 1017.6 946.1 +22.1
15 25.08 штиль 0 10 км 3/0
[Ac trans Ci fib]
+14.0 +8.7 70 +14 +14 прохладно 1019.8 946.7
18 25.08 СВ 1 10 км 3/0
[Ac trans Ci fib]
+11.5 +7.8 78 +11 +11 по сезону 1021.5 947.7

 

Местоположение метеостанции Кызыл (Тува, Россия): широта 51.72 долгота 94.50 высота над уровнем моря 632 м.

В архиве по умолчанию представлена погода в Кызыле за последнюю неделю. Архивные данные за месяц целиком и за предыдущие месяцы, начиная с января 2011 года, Вы можете получить, выбрав интересующий диапазон дат из раскрывающегося списка и нажав кнопку "Ввод!".


*Определитесь, кто Вы:
робот инопланетянин человек

Внимание! Время в таблицах - всемирное. Для получения местного времени необходимо прибавить поправку, которая равна 7 ч.

Смотрите также архив погоды в соседних городах и на ближайших метеорологических станциях:

Погода в Туране (Тува, Россия) (61 км)
Погода в Сосновке (Тува, Россия) (63 км)
Погода в Сарыг-Сепе (Тува, Россия) (78 км)
Погода в Хову-Аксы (Тува, Россия) (81 км)
Погода в Нижнеусинском (Красноярский край, Россия) (118 км)
Погода в Шагонаре (Тува, Россия) (127 км)
Погода в Тоора-Хем (Тува, Россия) (138 км)
Погода в Оленьей Речке (Красноярский край, Россия) (148 км)
Погода в Усть-Усе (Красноярский край, Россия) (159 км)
Погода в Эрзине (Тува, Россия) (167 км)

Пояснения к столбцам:

Ветер - указаны скорость ветра в м/с - средняя за 10 мин, порывы в срок и между сроками (в фигурных скобках) и направление, откуда дует ветер: С - северный, СВ - северо-восточный, В - восточный, ЮВ - юго-восточный, Ю - южный, ЮЗ - юго-западный, З - западный, СЗ - северо-западный.
Видимость - горизонтальная дальность видимости в метрах или километрах. При видимости от 1 до 10 км при отсутствии осадков обычно наблюдается дымка, при ухудшении видимости до 1 км и менее - туман. В сухую погоду видимость может ухудшаться дымом, пылью или мглою.
Явления - указаны атмосферные явления, наблюдавшиеся в срок или в последний час перед сроком; фигурными скобками обозначены явления, наблюдавшиеся между сроками (за 1-3 часа до срока); квадратными скобками обозначены град или гололедные отложения с указанием их диаметра в мм.
Облачность - указаны через наклонную черту общая и нижняя облачность в баллах и высота нижней границы облаков в метрах; квадратными скобками обозначены формы облаков: Ci - перистые, Cs - перисто-слоистые, Cc - перисто-кучевые, Ac - высококучевые, As - высокослоистые, Sc - слоисто-кучевые, Ns - слоисто-дождевые, Cu - кучевые, Cb - кучево-дождевые. Подробнее классификацию облаков см. в Атласе облаков (PDF).
T - Температура воздуха - температура, измеренная на высоте 2 м над землей.
Td - Температура точки росы - температура, при понижении до которой содержащийся в воздухе водяной пар достигнет насыщения.
f - Относительная влажность воздуха - влажноcть воздуха, измеренная на высоте 2 м над землей.
Te - Эффективная температура - температура, которую ощущает одетый по сезону человек в тени. Характеристика душности погоды. При расчете учитывается влияние влажности воздуха и скорости ветра на теплоощущения человека.
Tes - Эффективная температура на солнце - температура, которую ощущает человек, с поправкой на солнечный нагрев. Характеристика знойности погоды. Зависит от высоты солнца над горизонтом, облачности и скорости ветра. Ночью, в пасмурную погоду, а также при ветре 12 м/с и более поправка равна нулю.
P - Атмосферное давление - приведенное к уровню моря атмосферное давление.
Po - Атмосферное давление - измеренное на уровне метеостанции атмосферное давление.
Tmin - Минимальная температура - минимум температуры воздуха на высоте 2 м над землей.
Tmax - Максимальная температура - максимум температуры воздуха на высоте 2 м над землей.
R - Количество осадков - Количество выпавших осадков за период времени, мм. При наведении курсора мыши на число - период времени, за который выпало указанное количество осадков.
R24 - Количество осадков - Количество выпавших осадков за 24 часа, мм.
S - Снежный покров - Высота снежного покрова, см. При наведении курсора мыши на число - состояние снежного покрова и степень покрытия местности в баллах.